Hayward, WI

10:49 AM CDT on August 20, 2017 (GMT -0500)
Sawyer County

Weather History for KHYR - April, 2013

Change the Weather History Date:

Wednesday, April 10, 2013

  Actual Average Record
Temperature  
Mean Temperature 34 °F -  
Max Temperature 39 °F 51 °F 77 °F (2005)
Min Temperature 28 °F 27 °F 12 °F (1997)
Degree Days  
Heating Degree Days 32    
Moisture  
Dew Point 20 °F    
Average Humidity 56    
Maximum Humidity 78    
Minimum Humidity 40    
Precipitation  
Precipitation 0.00 in - - ()
Sea Level Pressure  
Sea Level Pressure 30.16 in    
Wind  
Wind Speed 7 mph (NE)    
Max Wind Speed 14 mph    
Max Gust Speed 25 mph    
Visibility 10 miles    
Events      
Averages and records for this station are not official NWS values.
T = Trace of Precipitation, MM = Missing Value Source: NWS Daily Summary

Daily Weather History Graph

Daily Weather History Graph

Search for Another Location

Airport or City:

Trip Planner

Search our weather history database for the weather conditions in past years. The results will help you decide how hot, cold, wet, or windy it might be!

Date:

Astronomy

Apr. 10, 2013 Rise Set
Actual Time 6:28 AM CDT 7:46 PM CDT
Civil Twilight 5:57 AM CDT 8:17 PM CDT
Nautical Twilight 5:20 AM CDT 8:54 PM CDT
Astronomical Twilight 4:40 AM CDT 9:34 PM CDT
Moon 6:22 AM CDT (4/10) 8:26 PM CDT (4/10)
Length of Visible Light 14h 20m
Length of Day
13h 18m
New Moon, 0% of the Moon is Illuminated
Apr 10
New Moon
Apr 18
First Quarter
Apr 25
Full
May 2
Last Quarter
May 9
New

Hourly Weather History & Observations

Time (CDT) Temp. Windchill Dew Point Humidity Pressure Visibility Wind Dir Wind Speed Gust Speed Precip Events Conditions
12:53 AM 32.0 °F 28.7 °F 19.0 °F 59% 30.23 in 10.0 mi North 3.5 mph - N/A   Overcast
1:53 AM 30.9 °F - 21.0 °F 67% 30.25 in 10.0 mi Calm Calm - N/A   Overcast
2:53 AM 30.9 °F 27.5 °F 19.9 °F 64% 30.24 in 10.0 mi Variable 3.5 mph - N/A   Clear
3:53 AM 30.0 °F 21.7 °F 19.9 °F 66% 30.15 in 10.0 mi NE 9.2 mph - N/A   Clear
4:53 AM 28.9 °F 25.2 °F 19.9 °F 69% 30.17 in 10.0 mi NNE 3.5 mph - N/A   Clear
5:53 AM 30.0 °F 26.5 °F 21.9 °F 72% 30.24 in 10.0 mi Variable 3.5 mph - N/A   Overcast
6:53 AM 28.9 °F 22.8 °F 23.0 °F 78% 30.19 in 10.0 mi Variable 5.8 mph - N/A   Mostly Cloudy
7:53 AM 30.9 °F 22.8 °F 23.0 °F 72% 30.14 in 10.0 mi NE 9.2 mph 18.4 mph N/A   Overcast
8:53 AM 34.0 °F 26.0 °F 21.0 °F 59% 30.16 in 10.0 mi ENE 10.4 mph 17.3 mph N/A   Clear
9:53 AM 35.1 °F 25.9 °F 21.0 °F 57% 30.20 in 10.0 mi ENE 13.8 mph 18.4 mph N/A   Clear
10:53 AM 39.0 °F 33.4 °F 19.9 °F 46% 30.18 in 10.0 mi NE 8.1 mph 17.3 mph N/A   Clear
11:53 AM 37.9 °F 32.1 °F 19.9 °F 48% 30.19 in 10.0 mi NE 8.1 mph 16.1 mph N/A   Clear
12:53 PM 37.9 °F 31.5 °F 21.0 °F 51% 30.17 in 10.0 mi NE 9.2 mph 25.3 mph N/A   Scattered Clouds
2:53 PM 39.9 °F 33.9 °F 19.9 °F 45% 30.15 in 10.0 mi NE 9.2 mph 20.7 mph N/A   Overcast
3:53 PM 39.0 °F 31.8 °F 18.0 °F 43% 30.17 in 10.0 mi ENE 11.5 mph 20.7 mph N/A   Overcast
4:53 PM 37.0 °F 31.0 °F 17.1 °F 44% 30.15 in 10.0 mi NNE 8.1 mph 16.1 mph N/A   Overcast
5:53 PM 36.0 °F 29.0 °F 19.0 °F 50% 30.13 in 10.0 mi NE 9.2 mph 16.1 mph N/A   Overcast
6:53 PM 36.0 °F 29.0 °F 19.9 °F 52% 30.11 in 10.0 mi NE 9.2 mph 17.3 mph N/A   Overcast
7:53 PM 34.0 °F 28.0 °F 19.0 °F 54% 30.10 in 10.0 mi NE 6.9 mph - N/A   Overcast
8:53 PM 34.0 °F 26.0 °F 19.0 °F 54% 30.07 in 10.0 mi NE 10.4 mph 17.3 mph N/A   Mostly Cloudy
9:53 PM 35.1 °F 25.9 °F 18.0 °F 50% 30.08 in 10.0 mi ENE 13.8 mph 19.6 mph N/A   Overcast
10:53 PM 35.1 °F 25.9 °F 17.1 °F 48% 30.06 in 10.0 mi ENE 13.8 mph 19.6 mph N/A   Overcast
11:53 PM 34.0 °F 25.0 °F 12.0 °F 40% 30.04 in 10.0 mi ENE 12.7 mph - N/A   Partly Cloudy